Location: Invercargill
(46.4000°S, 168.3500°E)
Time: 22:33:30
(UTC+13:00)

ARGOS - Pass Details

Date: 24 January 2019
Orbit: 821 x 834 km, 98.5° (Epoch: 15 October)

Event Time Altitude Azimuth Distance (km) Brightness Sun altitude
Rises 23:09:02 0° 165° (SSE) 3,398 6.9 -14.0°
Reaches altitude 10° 23:11:25 10° 163° (SSE) 2,457 6.1 -14.3°
Maximum altitude 23:16:53 77° 77° (ENE) 859 3.1 -14.9°
Enters shadow 23:22:10 11° 350° (N) 2,389 5.2 -15.5°
